Flag for Puerto Rico Weather past 2 weeks in San Juan, Puerto Rico

Now
81 °F

Light rain. Passing clouds.


Feels Like: 87 °F
Forecast: 78 / 86 °F
Wind: No wind

Location: Luis Munoz Marin

Current Time: Sep 15, 2014 at 11:54:21 PM

Latest Report: Sep 15, 2014 at 10:56 PM


Visibility: 10 mi

Pressure: 30.03 "Hg

Humidity: 85%

Dew point: 76 °F

Location of San JuanLocation

Historic Weather in San Juan — Graph

°F

San Juan temperature yesterday

Maximum temperature yesterday: 88 °F (at 10:56 AM)
Minimum temperature yesterday: 78 °F (at 3:56 AM)
Average temperature yesterday: 83 °F

Past Weeks' High & Low Weather Summary

 TemperatureHumidityPressure
High90 °F (Sep 12, 1:56 PM)100% (Sep 7, 9:56 AM)30.07 "Hg (Sep 7, 9:56 AM)
Low75 °F (Sep 7, 9:56 AM)61% (Sep 11, 3:56 PM)29.91 "Hg (Sep 11, 4:56 PM)
Average83 °F81%29.99 "Hg
* Reported Aug 31 10:56 PM — Sep 15 10:56 PM, San Juan, Weather by CustomWeather, © 2014

Note: Actual official high and low records may vary slightly from our data, if they occured in-between our weather recording intervals... More about our weather records

Advertising

San Juan weather history for previous 24 hours

 ConditionsComfort  
Time TempWeatherWind HumidityBarometerVisibility
10:56 PM
Sep 15
81 °FLight rain. Passing clouds.No wind85%30.03 "Hg10 mi
9:56 PM82 °FPassing clouds.3 mph77%30.03 "Hg10 mi
8:56 PM83 °FPassing clouds.5 mph77%30.01 "Hg10 mi
7:56 PM83 °FPassing clouds.5 mph79%29.98 "Hg10 mi
6:56 PM83 °FBroken clouds.5 mph79%29.97 "Hg10 mi
5:56 PM84 °FBroken clouds.9 mph74%29.96 "Hg10 mi
4:56 PM84 °FScattered clouds.12 mph77%29.96 "Hg10 mi
3:56 PM85 °FScattered clouds.12 mph75%29.97 "Hg10 mi
2:56 PM86 °FScattered clouds.12 mph75%29.97 "Hg10 mi
1:56 PM87 °FScattered clouds.13 mph72%29.97 "Hg10 mi
12:56 PM87 °FScattered clouds.12 mph75%29.98 "Hg10 mi
11:56 AM87 °FScattered clouds.7 mph75%30.01 "Hg10 mi
10:56 AM86 °FScattered clouds.8 mph75%30.03 "Hg10 mi
9:56 AM85 °FScattered clouds.5 mph77%30.04 "Hg10 mi
8:56 AM82 °FScattered clouds.3 mph85%30.03 "Hg10 mi
7:56 AM82 °FScattered clouds.3 mph85%30.02 "Hg10 mi
6:56 AM79 °FPassing clouds.3 mph94%30.01 "Hg10 mi
5:56 AM78 °FPassing clouds.No wind96%29.99 "Hg10 mi
4:56 AM79 °FPassing clouds.No wind94%29.98 "Hg10 mi
3:56 AM79 °FLight rain. Passing clouds.No wind94%29.98 "Hg10 mi
2:56 AM79 °FPassing clouds.No wind94%29.97 "Hg10 mi
1:56 AM79 °FLight rain. Partly cloudy.No wind90%29.99 "Hg9 mi
12:56 AM80 °FClear.No wind87%30.00 "Hg10 mi
11:56 PM
Sep 14
80 °FPassing clouds.3 mph90%30.01 "Hg10 mi
Weather by CustomWeather, © 2014

See weather overviewHow to use our weather pages